Wind_Speed
10 10 10 9 10 11 11 11 12 12 13 13 13 13 13 13 13 13 13 13 14 14 14 14 15 14 13 13 13 13 13 13 12 12 12 12 12 12 12 12 12 12 12 11
11 11 11 11 12 12 12 13 13 13 14 14 14 13 14 14 14 14 14 15 15 15 15 15 15 15 15 14 14 15 15 14 14 13 12 13 13 13 12 12 12 12 12 12
12 12 12 13 12 13 13 14 14 15 14 14 15 14 15 15 14 15 15 16 16 16 16 15 15 15 16 16 16 16 15 15 15 13 13 13 13 13 12 12 12 12 12 12
13 13 14 14 14 14 15 15 15 16 15 15 15 15 15 16 16 16 17 17 17 17 17 17 16 16 16 16 15 15 15 15 14 14 13 13 12 12 12 12 13 13 13 13
14 15 15 16 16 16 16 16 16 17 17 17 16 16 15 17 17 17 18 18 18 17 17 17 17 17 17 16 16 15 15 15 15 14 14 13 13 12 12 13 13 13 13 13
16 16 16 17 17 17 17 17 17 18 18 18 16 17 17 19 19 18 19 19 19 19 18 18 18 17 17 17 17 17 16 16 15 15 15 15 14 13 13 14 14 14 15 15
17 17 17 18 18 18 17 17 17 18 18 18 17 19 20 19 19 19 20 20 20 19 19 18 18 18 18 18 18 18 18 17 17 17 17 17 16 15 15 15 16 16 16 16
18 18 18 18 18 18 18 18 18 18 18 18 17 20 21 20 21 21 21 21 20 20 20 20 20 20 20 20 20 19 19 19 19 19 19 18 18 18 17 17 17 17 17 17
19 19 19 20 20 19 19 19 19 20 18 18 19 20 21 21 22 21 21 21 21 20 20 20 20 21 21 21 21 21 20 20 20 20 20 19 19 19 19 18 18 18 18 17
20 21 21 20 20 21 20 19 19 20 20 19 21 23 23 23 22 22 22 21 21 21 22 21 21 21 22 22 22 21 21 21 21 21 21 21 20 20 20 20 19 19 19 19
21 22 22 22 22 22 22 21 22 22 22 21 22 23 23 23 23 24 24 23 23 23 23 22 22 21 22 23 23 23 23 22 22 22 22 22 21 21 21 22 21 20 20 20
23 23 23 23 23 23 24 24 23 24 24 24 24 26 25 24 24 25 25 25 24 24 24 23 23 23 23 23 23 24 23 23 24 23 23 23 22 23 23 23 22 22 21 21
24 25 25 24 24 24 25 25 25 26 26 26 25 26 25 25 25 25 25 25 25 25 25 24 24 24 24 24 24 25 25 25 24 24 25 24 24 25 24 24 24 24 23 23
26 27 26 26 24 25 26 26 26 26 28 28 27 26 27 27 26 26 26 25 25 26 26 25 25 25 25 25 25 24 25 25 26 26 26 26 26 26 25 25 25 25 25 24
27 27 27 27 26 27 27 27 27 27 27 29 28 28 27 28 29 28 28 27 26 27 26 26 26 26 26 26 26 26 25 26 27 27 27 27 26 26 26 26 26 26 26 25
26 27 27 27 26 27 28 27 27 27 27 28 29 30 29 29 30 30 30 29 28 28 27 27 26 26 26 26 27 27 27 26 27 27 27 27 27 27 27 27 27 27 27 27
26 27 27 27 25 27 28 26 26 27 28 27 28 28 29 30 30 30 30 28 29 29 28 28 28 28 27 27 28 28 28 28 27 28 28 29 29 28 28 28 29 29 29 29
25 26 27 27 26 28 26 25 24 24 25 26 27 28 29 30 30 31 31 30 30 31 30 29 29 30 29 29 29 29 29 29 29 29 29 30 30 29 29 31 31 31 31 31
25 25 26 27 28 28 26 25 24 25 25 25 26 28 29 29 29 31 32 32 31 32 31 31 31 31 31 30 30 30 30 30 30 30 31 32 32 31 31 32 31 32 32 32
25 25 26 26 27 29 27 25 26 26 27 26 26 27 28 29 30 30 30 31 32 32 32 32 32 32 32 33 32 32 32 31 31 32 32 33 33 33 33 33 33 34 33 33
25 24 25 26 28 29 27 26 26 27 27 27 27 27 27 28 29 30 30 31 32 32 32 32 32 33 34 34 33 33 34 33 33 33 33 34 35 34 33 34 34 35 35 35
25 25 25 26 28 28 27 26 27 28 28 28 28 28 29 29 30 31 31 31 31 32 32 32 32 33 33 34 34 35 35 35 34 35 35 35 35 35 35 35 34 35 35 36
25 25 26 27 27 27 28 28 28 28 29 29 30 29 30 31 32 32 32 32 32 32 32 32 32 33 34 35 35 36 36 36 36 36 36 36 36 35 35 35 35 35 35 35
25 25 26 26 26 27 28 28 29 29 29 30 30 30 30 30 31 32 32 32 33 33 33 33 34 34 34 35 37 37 37 37 37 37 36 37 37 36 36 36 36 35 35 35
25 25 25 26 26 27 28 29 29 29 30 30 30 30 30 30 30 31 30 32 33 34 34 34 34 35 35 35 36 37 38 38 38 37 37 38 37 36 36 35 35 35 35 35
25 26 26 26 27 28 29 29 29 29 29 29 30 30 31 31 31 31 31 31 31 32 33 34 34 34 34 35 35 36 36 37 37 37 37 37 37 36 36 35 35 34 34 34
Wind_Direction
244 248 252 259 263 265 268 271 271 273 276 276 276 278 279 275 274 274 272 270 268 267 266 263 262 262 260 258 257 258 258 261 261 263 266 270 271 272 277 280 280 283 283 284
248 253 258 258 261 264 267 271 271 270 274 276 274 277 277 274 272 275 274 272 268 266 267 264 261 260 258 257 258 258 258 259 259 261 263 268 271 273 276 279 281 282 283 286
250 256 257 258 261 264 269 272 273 273 272 274 277 276 279 276 273 271 270 271 269 267 267 264 259 256 257 255 256 258 258 257 255 259 266 269 270 274 276 279 281 283 283 285
250 255 256 257 262 265 269 272 273 276 277 279 279 279 276 279 277 274 272 272 271 267 265 263 260 258 258 258 257 257 255 254 257 260 266 268 268 270 273 275 279 281 283 285
253 255 257 260 264 267 269 271 273 276 279 279 281 281 276 276 277 278 275 272 271 268 264 262 260 259 258 259 258 257 255 257 259 259 263 264 267 268 270 272 276 280 283 286
259 261 264 266 268 270 270 269 270 273 276 277 281 280 276 277 279 279 276 272 270 268 264 259 258 257 256 256 256 257 256 258 259 260 260 262 264 265 269 273 275 279 284 286
261 261 265 267 268 269 269 268 269 272 275 279 282 279 277 276 275 275 273 271 270 267 263 260 258 256 256 255 255 256 257 260 260 260 259 259 262 266 269 272 275 279 283 285
268 270 267 267 268 268 268 266 264 266 272 274 273 274 278 275 273 274 273 272 269 265 262 260 258 257 255 255 255 254 256 258 260 259 258 259 261 264 267 272 275 279 280 282
266 270 270 270 270 268 265 264 266 265 267 271 274 275 275 273 275 275 274 271 268 265 263 262 260 258 258 259 257 255 255 256 258 257 257 258 261 265 268 271 274 277 278 280
264 266 268 269 270 268 267 263 261 261 262 263 269 271 271 272 274 276 275 272 270 267 265 263 261 260 259 259 257 255 254 254 255 256 256 258 260 264 269 270 271 273 277 280
262 264 267 268 270 270 267 264 261 261 260 259 262 266 268 267 270 271 271 269 268 268 266 264 262 260 259 258 257 256 255 253 254 255 256 259 260 263 267 270 271 272 275 279
264 263 265 267 268 269 267 265 261 260 260 257 258 265 268 267 267 268 269 267 266 267 266 263 262 261 260 258 258 256 254 254 254 255 256 258 260 264 266 270 270 272 274 278
266 265 266 267 267 266 266 265 264 261 261 261 258 263 265 266 266 266 266 267 266 265 265 263 262 261 260 260 259 258 256 255 254 255 256 256 260 264 265 267 270 272 274 276
265 265 263 264 265 266 266 266 264 262 261 259 259 260 262 265 266 265 264 263 262 262 263 263 263 262 262 261 260 260 259 256 255 255 256 257 258 262 264 266 268 272 274 274
266 265 264 263 264 266 267 267 265 264 261 259 258 256 259 262 264 264 264 263 261 261 260 261 262 262 262 262 261 261 261 259 257 256 257 257 257 259 263 265 268 270 272 273
266 265 266 264 263 265 266 266 265 266 265 262 261 261 260 262 263 263 263 262 262 261 260 260 261 261 261 263 263 262 262 261 259 257 258 258 258 260 262 264 267 269 271 272
269 267 266 268 266 265 266 268 268 268 268 267 264 264 264 263 264 263 263 263 262 262 261 261 261 261 262 263 263 263 263 262 260 259 258 258 260 262 263 263 266 269 270 271
270 269 268 267 266 267 269 271 272 269 267 264 263 264 265 266 266 265 264 264 264 263 262 261 261 261 262 264 264 264 264 263 264 262 260 260 262 263 263 265 266 268 269 271
270 270 269 269 268 269 269 271 272 270 267 266 266 264 264 266 265 265 265 265 264 264 263 262 262 262 262 264 264 265 265 264 263 263 263 263 264 266 266 267 267 267 269 271
270 269 267 268 269 268 269 271 270 270 270 268 266 265 264 265 265 266 267 267 266 265 264 264 263 262 262 262 263 264 265 265 265 265 265 265 265 266 267 267 268 268 270 270
272 270 268 266 268 270 269 268 269 267 269 270 269 267 266 267 267 268 268 268 268 267 267 265 263 263 263 263 264 264 264 264 265 265 266 266 266 267 268 268 270 270 270 271
274 272 270 269 268 269 269 268 268 268 269 269 269 268 267 267 268 269 268 268 268 267 267 266 264 262 262 262 263 264 264 265 266 267 267 268 267 267 267 268 269 270 271 271
272 270 270 269 268 268 267 268 269 269 269 269 269 269 270 268 267 268 267 267 267 267 267 267 265 264 262 262 262 263 264 265 266 266 267 267 266 266 267 268 269 270 271 271
269 269 270 270 270 268 269 268 268 270 271 271 272 272 273 273 270 269 268 269 269 269 269 268 267 265 265 265 264 263 265 265 266 266 266 267 266 267 268 269 269 270 271 271
270 269 269 268 269 269 268 268 268 268 269 270 271 272 274 275 275 273 273 272 272 271 270 269 269 267 267 267 267 266 266 266 266 266 266 267 267 269 270 270 271 271 271 272
272 271 271 271 271 273 272 270 272 271 271 271 272 273 274 275 275 276 276 275 272 271 271 271 270 269 268 268 268 267 265 266 266 266 266 267 267 269 269 269 269 271 272 272
Height
5832 5834 5834 5835 5836 5836 5837 5837 5837 5837 5837 5837 5837 5837 5837 5837 5838 5838 5838 5839 5839 5839 5839 5840 5840 5841 5842 5843 5844 5845 5846 5847 5847 5848 5849 5849 5849 5850 5850 5850 5850 5850 5850 5849
5830 5831 5832 5832 5833 5834 5834 5834 5834 5834 5834 5834 5834 5835 5834 5834 5835 5835 5835 5836 5836 5836 5837 5837 5837 5838 5839 5840 5841 5842 5842 5844 5844 5845 5846 5846 5847 5847 5848 5848 5847 5847 5847 5847
5827 5829 5829 5830 5830 5831 5831 5831 5832 5832 5831 5831 5832 5832 5832 5832 5832 5832 5832 5832 5832 5833 5833 5834 5834 5835 5836 5836 5837 5838 5839 5840 5841 5842 5843 5844 5844 5844 5845 5845 5845 5844 5844 5844
5824 5825 5826 5826 5827 5828 5828 5828 5828 5828 5828 5828 5829 5828 5829 5828 5828 5829 5829 5829 5829 5829 5830 5830 5831 5832 5833 5833 5834 5835 5836 5837 5838 5839 5840 5840 5841 5841 5842 5842 5842 5842 5841 5841
5821 5822 5822 5823 5824 5824 5825 5825 5825 5825 5824 5825 5825 5825 5826 5824 5825 5825 5825 5825 5825 5825 5826 5826 5827 5828 5829 5830 5831 5832 5832 5833 5834 5835 5836 5837 5837 5838 5838 5838 5839 5839 5838 5838
5817 5818 5819 5820 5820 5820 5821 5821 5821 5821 5821 5821 5822 5821 5822 5821 5821 5821 5821 5820 5821 5821 5822 5822 5823 5824 5825 5826 5827 5828 5829 5830 5830 5831 5832 5833 5834 5834 5835 5835 5835 5835 5835 5835
5813 5814 5815 5815 5816 5816 5816 5817 5817 5816 5816 5817 5818 5817 5817 5817 5817 5816 5816 5816 5816 5817 5817 5818 5819 5820 5821 5822 5823 5824 5825 5826 5827 5828 5829 5829 5830 5830 5831 5831 5831 5831 5831 5831
5809 5809 5810 5810 5811 5811 5811 5812 5813 5813 5813 5813 5813 5812 5813 5812 5812 5811 5811 5811 5811 5812 5812 5813 5814 5815 5815 5816 5818 5819 5820 5821 5822 5823 5824 5825 5825 5826 5827 5827 5827 5827 5827 5827
5804 5805 5805 5805 5806 5807 5807 5807 5808 5808 5807 5808 5808 5808 5807 5806 5806 5806 5806 5806 5806 5807 5807 5808 5808 5809 5810 5811 5812 5813 5815 5816 5817 5818 5819 5820 5821 5821 5822 5822 5823 5823 5823 5822
5799 5799 5800 5800 5801 5801 5802 5802 5802 5802 5802 5802 5803 5803 5802 5801 5801 5801 5801 5801 5801 5801 5802 5802 5803 5804 5805 5805 5806 5808 5809 5810 5811 5812 5813 5814 5815 5816 5817 5817 5818 5818 5818 5818
5793 5794 5795 5795 5795 5795 5796 5796 5795 5796 5796 5797 5797 5798 5796 5795 5795 5796 5795 5795 5796 5796 5796 5797 5797 5797 5799 5800 5800 5801 5803 5804 5805 5807 5808 5809 5810 5811 5811 5812 5812 5813 5813 5813
5786 5787 5787 5788 5788 5788 5789 5789 5789 5790 5790 5790 5790 5792 5790 5790 5789 5789 5789 5789 5790 5790 5791 5791 5792 5792 5793 5794 5794 5795 5797 5798 5799 5800 5801 5803 5804 5805 5806 5806 5807 5807 5807 5807
5780 5780 5780 5781 5783 5782 5781 5781 5782 5782 5782 5783 5783 5785 5783 5782 5783 5782 5782 5783 5784 5784 5784 5785 5786 5786 5787 5787 5788 5789 5790 5791 5793 5794 5795 5796 5798 5799 5800 5800 5801 5801 5801 5801
5772 5772 5774 5774 5774 5773 5773 5774 5774 5775 5774 5775 5775 5776 5776 5776 5775 5776 5776 5776 5776 5777 5778 5779 5779 5780 5781 5781 5782 5783 5783 5784 5786 5787 5788 5789 5791 5792 5793 5794 5794 5795 5795 5795
5764 5765 5765 5765 5766 5766 5766 5766 5766 5767 5767 5767 5768 5768 5768 5769 5768 5769 5769 5769 5770 5770 5770 5772 5773 5773 5774 5775 5775 5776 5777 5778 5779 5780 5781 5782 5783 5785 5786 5787 5787 5788 5788 5788
5757 5757 5758 5758 5759 5758 5758 5758 5758 5759 5760 5760 5760 5760 5761 5761 5760 5761 5762 5762 5762 5763 5764 5764 5766 5766 5767 5768 5768 5769 5770 5771 5772 5773 5774 5775 5776 5777 5779 5779 5780 5781 5781 5781
5749 5749 5750 5750 5751 5750 5751 5752 5751 5751 5752 5752 5752 5753 5753 5752 5752 5753 5754 5754 5755 5755 5756 5757 5758 5759 5759 5760 5761 5761 5762 5763 5764 5765 5766 5767 5768 5769 5770 5771 5772 5773 5773 5774
5742 5742 5742 5742 5743 5742 5746 5744 5744 5743 5744 5744 5744 5744 5745 5745 5746 5746 5746 5746 5747 5747 5749 5749 5750 5751 5752 5752 5753 5753 5754 5755 5756 5757 5758 5759 5760 5761 5762 5763 5764 5764 5765 5765
5735 5735 5734 5735 5734 5735 5737 5737 5736 5736 5736 5737 5736 5737 5737 5737 5737 5737 5737 5738 5739 5740 5740 5741 5742 5743 5743 5744 5744 5745 5746 5747 5748 5749 5749 5750 5751 5752 5753 5754 5754 5755 5755 5756
5728 5727 5728 5727 5727 5727 5730 5730 5729 5729 5728 5729 5729 5729 5729 5729 5729 5730 5730 5730 5730 5731 5732 5733 5733 5734 5735 5735 5736 5737 5738 5738 5739 5740 5740 5741 5742 5743 5744 5744 5745 5745 5746 5746
5721 5721 5721 5720 5719 5719 5722 5722 5721 5722 5722 5721 5721 5721 5721 5721 5721 5722 5721 5721 5722 5722 5723 5723 5724 5725 5725 5726 5727 5728 5728 5729 5730 5730 5731 5731 5732 5733 5734 5734 5735 5735 5736 5737
5713 5713 5713 5713 5712 5715 5714 5714 5714 5713 5713 5713 5713 5713 5713 5713 5713 5713 5713 5713 5713 5713 5714 5714 5714 5715 5715 5716 5717 5718 5719 5720 5720 5721 5721 5722 5722 5723 5724 5724 5725 5725 5726 5726
5705 5705 5705 5706 5707 5706 5705 5705 5705 5705 5705 5705 5705 5706 5705 5705 5704 5704 5704 5704 5704 5704 5704 5704 5705 5705 5705 5706 5707 5708 5709 5709 5710 5710 5711 5711 5712 5713 5713 5714 5715 5715 5715 5716
5698 5697 5697 5697 5697 5698 5697 5698 5697 5697 5697 5697 5697 5697 5697 5696 5696 5695 5695 5695 5694 5695 5695 5695 5695 5695 5695 5696 5696 5697 5698 5699 5699 5700 5701 5701 5702 5702 5703 5703 5704 5705 5705 5706
5691 5690 5690 5690 5690 5690 5690 5689 5689 5689 5689 5689 5689 5688 5688 5687 5687 5686 5686 5686 5685 5685 5685 5684 5684 5685 5685 5685 5685 5686 5687 5687 5688 5689 5690 5691 5691 5692 5692 5693 5694 5694 5695 5695
5684 5683 5683 5683 5682 5682 5682 5681 5681 5680 5680 5680 5680 5680 5679 5679 5678 5677 5677 5677 5676 5676 5675 5675 5674 5674 5675 5675 5675 5675 5676 5676 5677 5678 5679 5680 5681 5681 5682 5683 5684 5684 5684 5685